Regional Weather Roundup
Issued by NWS Grand Forks, ND

Home | Current Version | Previous Version | Text Only | Print | Product List | Glossary Off
Versions: 1 2 3 4 5 6 7 8 9 10 11 12 13 14 15 16 17 18 19 20 21 22 23 24 25 26 27 28 29 30 31 32 33 34 35 36 37 38 39 40 41 42 43 44 45 46 47 48 49 50

000
ASUS43 KFGF 260610
RWRFGF
PRAIRIE TO PINES  WEATHER ROUNDUP
NATIONAL WEATHER SERVICE EASTERN NORTH DAKOTA/GRAND FORKS ND
100 AM CDT TUE JUL 26 2016

 **SATELLITE DATA USED TO AUGMENT SKY COVER AT AUTOMATED STATIONS**
 *****  WEATHER ACROSS EASTERN NORTH DAKOTA  *****

CITY           SKY/WX    TMP DP  RH WIND       PRES   REMARKS
GRAND FORKS    CLEAR     72  65  78 E9        29.92R
6HR MIN TEMP:  72; 6HR MAX TEMP:  89;

GRAND FRKS AFB CLEAR     71  66  83 NE5       29.94R
GRAND FRKS NWS   N/A     72 N/A N/A E6          N/A
DEVILS LAKE    CLEAR     69  66  90 NE6       29.97S
6HR MIN TEMP:  69; 6HR MAX TEMP:  84;

FARGO          PTCLDY    74  66  76 S8        29.92S
WAHPETON ARPT  CLEAR     70  63  78 S7        29.95S
$$

 ***** WEATHER ACROSS CENTRAL AND WESTERN NORTH DAKOTA  *****

CITY           SKY/WX    TMP DP  RH WIND       PRES   REMARKS
BISMARCK       CLOUDY    74  70  87 NE12      29.95S
6HR MIN TEMP:  74; 6HR MAX TEMP:  94;

MINOT          CLEAR     68  63  84 NW3       29.98S
6HR MIN TEMP:  68; 6HR MAX TEMP:  88;

JAMESTOWN      MOCLDY    70  68  93 CALM      29.92S
6HR MIN TEMP:  70; 6HR MAX TEMP:  88; 6HR PCP: TRACE;

MINOT AFB      CLEAR     62  60  93 SE2       29.97S
GARRISON         N/A     69  66  90 NE5       29.98F
WILLISTON      CLEAR     72  59  63 NE3       30.00S
6HR MIN TEMP:  69; 6HR MAX TEMP:  90;

DICKINSON      PTCLDY    67  62  84 NE6       30.00R
6HR MIN TEMP:  65; 6HR MAX TEMP:  91;

HETTINGER      PTCLDY    75  61  61 N13       30.00R
6HR MIN TEMP:  69; 6HR MAX TEMP:  98;

$$

 *****  OTHER AIRPORT OBSERVATIONS IN OUR AREA  *****

CITY           SKY/WX    TMP DP  RH WIND       PRES   REMARKS
WALHALLA       NOT AVBL
GRAFTON AIRPOR FAIR      70  70 100 N6        29.95S
VALLEY CITY AR   N/A     70  68  94 SW7       29.94S
CANDO          NOT AVBL
CAVALIER APRT  FAIR      66  66 100 CALM      29.95S
GWINNER        FAIR      73  63  68 S13       29.94F
SHEYENNE NWR     N/A     70  61  73 SW6       29.95S
ROLLA          FAIR      63  63 100 NW6       30.01S
 ***** THE ABOVE OBSERVATIONS ARE NON NWS ARE NOT QUALITY
       CONTROLLED AND MAY MIS-REPORT RAIN FOR SNOW...
$$

  *****  WEATHER ACROSS NORTHERN MINNESOTA  *****

CITY           SKY/WX    TMP DP  RH WIND       PRES   REMARKS
FLAG ISLAND    CLEAR     72  63  73 CALM      29.95S
WARROAD        CLOUDY    64  61  88 CALM      29.97S
ROSEAU         CLOUDY    64  61  88 CALM      29.97R
HALLOCK        CLEAR     66  64  94 E7        29.94S
THF RVR FALLS  PTCLDY    70  66  87 NE9       29.96S
6HR MIN TEMP:  70; 6HR MAX TEMP:  83;

BAUDETTE       CLOUDY    66  64  93 CALM      29.97R
6HR MIN TEMP:  63; 6HR MAX TEMP:  81;

WASKISH        CLOUDY    68  66  94 CALM      29.97S
CROOKSTON      CLEAR     73  66  78 E8        29.94S
GREENBUSH NDAW   N/A     61  61 100 NE1         N/A
$$
  *****  WEATHER ACROSS CENTRAL AND WEST MINNESOTA  *****

CITY           SKY/WX    TMP DP  RH WIND       PRES   REMARKS
FOSSTON        CLEAR     70  64  83 S9        29.95F
BEMIDJI        PTCLDY    72  66  83 S5        29.97S
PARK RAPIDS    CLEAR     71  65  81 S6        29.99S
6HR MIN TEMP:  71; 6HR MAX TEMP:  83;

ELBOW LAKE     FAIR      70  64  81 S12       30.00R
WADENA         NOT AVBL
DETROIT LAKES  CLEAR     73  64  73 S5        29.99S
MOORHEAD       PTCLDY    73  66  78 S9        29.93S
FERGUS FALLS   CLEAR     72  64  78 S9        29.98S
MORRIS MN      CLEAR     68  64  88 S6        29.99S
STAPLES        PTCLDY    70  64  83 S6        30.01S
$$
  *****  WEATHER ELSEWHERE ACROSS MINNESOTA  *****

CITY           SKY/WX    TMP DP  RH WIND       PRES   REMARKS
DULUTH         CLEAR     67  63  87 W7        30.01S
6HR MIN TEMP:  67; 6HR MAX TEMP:  81;

INTRNTL FALLS  PTCLDY    60  58  92 CALM      29.97S
6HR MIN TEMP:  59; 6HR MAX TEMP:  80;

ELY            CLEAR     63  61  94 CALM      30.00R
CLOQUET        CLEAR     70  61  73 SW5       30.01S
WHEATON        NOT AVBL
BRAINERD       CLEAR     71  66  84 S7        30.01S
6HR MIN TEMP:  69; 6HR MAX TEMP:  83;

HIBBING        CLEAR     59  59 100 CALM      30.00S
6HR MIN TEMP:  59; 6HR MAX TEMP:  79;

ALEXANDRIA     CLEAR     74  63  68 S10       30.03S
6HR MIN TEMP:  74; 6HR MAX TEMP:  83;

SAINT CLOUD    CLEAR     69  67  93 S6        30.03S
6HR MIN TEMP:  69; 6HR MAX TEMP:  83;

MINNEAPOLIS    CLEAR     76  65  68 SW3       30.05R
6HR MIN TEMP:  76; 6HR MAX TEMP:  85;

$$

  *****  WEATHER ACROSS SOUTH DAKOTA  *****

CITY           SKY/WX    TMP DP  RH WIND       PRES   REMARKS
SIOUX FALLS    CLEAR     73  63  70 SW7       30.08S
6HR MIN TEMP:  72; 6HR MAX TEMP:  83;

BROOKINGS      PTCLDY    69  63  81 S7        30.07S
WATERTOWN      CLEAR     73  63  70 S9        30.04S
6HR MIN TEMP:  73; 6HR MAX TEMP:  85;

HURON          CLOUDY    74  56  53 S10       30.01S
6HR MIN TEMP:  73; 6HR MAX TEMP:  89;

SISSETON         N/A     79  61  53 SW24G30   29.94F
ABERDEEN       CLEAR     71  60  68 S13       29.96F
6HR MIN TEMP:  71; 6HR MAX TEMP:  89;

MITCHELL       CLOUDY    74  60  61 S10       30.05R
PIERRE         CLEAR     75  56  51 SE9       29.98S
6HR MIN TEMP:  75; 6HR MAX TEMP:  94;

MOBRIDGE       CLOUDY    78  58  49 SE8       29.92S
RAPID CITY     CLEAR     69  58  67 SE6       30.03S
6HR MIN TEMP:  69; 6HR MAX TEMP:  90;

$$

  *****  SOME WEATHER IN NEARBY STATES *****

CITY           SKY/WX    TMP DP  RH WIND       PRES   REMARKS
GLASGOW MT     CLEAR     71  60  68 NE21      30.00R
6HR MIN TEMP:  71; 6HR MAX TEMP:  91;

GREAT FALLS MT MOCLDY    67  48  50 N8        30.09R
6HR MIN TEMP:  65; 6HR MAX TEMP:  90;

CHEYENNE WY    CLEAR     66  57  72 S8        30.23R
6HR MIN TEMP:  66; 6HR MAX TEMP:  86;

SCOTTSBLUFF NE CLEAR     70  62  76 E10       30.11R
6HR MIN TEMP:  70; 6HR MAX TEMP:  93;

OMAHA NE       CLEAR     73  66  78 CALM      30.09R
6HR MIN TEMP:  73; 6HR MAX TEMP:  86;

DES MOINES IA  CLEAR     74  65  73 CALM      30.07F
6HR MIN TEMP:  73; 6HR MAX TEMP:  86;

DAVENPORT IA   CLEAR     65  63  93 NW3       30.06S
6HR MIN TEMP:  64; 6HR MAX TEMP:  81;

CHICAGO IL     CLOUDY    74  64  71 E3        30.03R
6HR MIN TEMP:  74; 6HR MAX TEMP:  84;

EAU CLAIRE WI  CLEAR     67  65  93 CALM      30.04S
6HR MIN TEMP:  67; 6HR MAX TEMP:  82;

LA CROSSE WI   PTCLDY    70  66  87 SE5       30.05S
6HR MIN TEMP:  70; 6HR MAX TEMP:  84;

$$

  *****  SOME NATIONAL WEATHER *****

CITY           SKY/WX    TMP DP  RH WIND       PRES   REMARKS
LA GUARDIA NY  PTCLDY    77  71  82 W9        29.86S
6HR MIN TEMP:  77; 6HR MAX TEMP:  79; 6HR PCP:  0.01;

RALEIGH NC     PTCLDY    81  73  76 SW14      30.00S
6HR MIN TEMP:  81; 6HR MAX TEMP:  89;

ATLANTA GA     PTCLDY    77  74  90 NW5       30.07F
6HR MIN TEMP:  77; 6HR MAX TEMP:  84; 6HR PCP:  0.20;

NEW ORLEANS LA PTCLDY    82  76  81 CALM      29.91F
6HR MIN TEMP:  81; 6HR MAX TEMP:  86;

OKLAHOMA CITY  TSTM      72  72 100 E25G32    30.04R VSB 3/4
6HR MIN TEMP:  72; 6HR MAX TEMP:  84; 6HR PCP:  0.32;

ALBUQUERQUE NM CLOUDY    75  56  51 E25G37    30.25R
6HR MIN TEMP:  75; 6HR MAX TEMP:  92;

SALT LAKE CITY PTCLDY    85  38  18 SE6       30.02R
6HR MIN TEMP:  83; 6HR MAX TEMP: 101;

LOS ANGELES CA MOCLDY    69  65  86 W8        29.91F
6HR MIN TEMP:  69; 6HR MAX TEMP:  78;

BOISE ID       CLEAR    C1F1C2F2C3F3C4F4C5F5C6F6C7F7C8F8C9F9CaFaCbFbCcFcCd!



USA.gov is the U.S. government's official web portal to all federal, state and local government web resources and services.